2024-02-26 00:04:33, 53.272, 0, 92.379611943299
2024-02-26 00:09:34, 53.272, 0, 92.379611943299
2024-02-26 00:14:34, 53.271, 0, 92.379611943299
2024-02-26 00:19:35, 53.27, 0, 92.379611943299
2024-02-26 00:24:35, 53.266, 0, 92.379611943299
2024-02-26 00:29:36, 53.265, 0, 92.379611943299
2024-02-26 00:34:36, 53.265, 0, 92.379611943299
2024-02-26 00:39:37, 53.266, 0, 92.379611943299
2024-02-26 00:44:37, 53.264, 0, 92.379611943299
2024-02-26 00:49:38, 53.263, 0, 92.379611943299
2024-02-26 00:54:38, 53.263, 0, 92.379611943299
2024-02-26 00:59:39, 53.262, 0, 92.379611943299
2024-02-26 01:04:39, 53.261, 0, 92.379611943299
2024-02-26 01:09:40, 53.259, 0, 92.379611943299
2024-02-26 01:14:40, 53.26, 0, 92.379611943299
2024-02-26 01:19:41, 53.259, 0, 92.379611943299
2024-02-26 01:24:41, 53.258, 0, 92.379611943299
2024-02-26 01:29:41, 53.258, 0, 92.379611943299
2024-02-26 01:34:43, 53.258, 0, 92.379611943299
2024-02-26 01:39:42, 53.259, 0, 92.379611943299
2024-02-26 01:44:44, 53.256, 0, 92.379611943299
2024-02-26 01:49:43, 53.254, 0, 92.379611943299
2024-02-26 01:54:45, 53.252, 0, 92.379611943299
2024-02-26 01:59:44, 53.251, 0, 92.379611943299
2024-02-26 02:04:46, 53.252, 0, 92.379611943299
2024-02-26 02:09:46, 53.25, 0, 92.379611943299
2024-02-26 02:14:47, 53.248, 0, 92.379611943299
2024-02-26 02:19:48, 53.247, 0, 92.379611943299
2024-02-26 02:24:48, 53.245, 0, 92.379611943299
2024-02-26 02:29:49, 53.244, 0, 92.379611943299
2024-02-26 02:34:49, 53.242, 0, 92.379611943299
2024-02-26 02:39:50, 53.244, 0, 92.379611943299
2024-02-26 02:44:51, 53.244, 0, 92.379611943299
2024-02-26 02:49:51, 53.243, 0, 92.379611943299
2024-02-26 02:54:52, 53.242, 0, 92.379611943299
2024-02-26 02:59:52, 53.24, 0, 92.379611943299
2024-02-26 03:04:53, 53.24, 0, 92.379611943299
2024-02-26 03:09:54, 53.241, 0, 92.379611943299
2024-02-26 03:14:54, 53.239, 0, 92.379611943299
2024-02-26 03:19:55, 53.239, 0, 92.379611943299
2024-02-26 03:24:55, 53.236, 0, 92.379611943299
2024-02-26 03:29:56, 53.235, 0, 92.379611943299
2024-02-26 03:34:56, 53.233, 0, 92.379611943299
2024-02-26 03:39:57, 53.234, 0, 92.379611943299
2024-02-26 03:44:57, 53.232, 0, 92.379611943299
2024-02-26 03:49:58, 53.231, 0, 92.379611943299
2024-02-26 03:54:59, 53.23, 0, 92.379611943299
2024-02-26 04:00:00, 53.231, 0, 92.379611943299
2024-02-26 04:05:00, 53.229, 0, 92.379611943299
2024-02-26 04:10:01, 53.228, 0, 92.379611943299
2024-02-26 04:15:01, 53.229, 0, 92.379611943299
2024-02-26 04:20:02, 53.227, 0, 92.379611943299
2024-02-26 04:25:03, 53.226, 0, 92.379611943299
2024-02-26 04:30:03, 53.227, 0, 92.379611943299
2024-02-26 04:35:04, 53.226, 0, 92.379611943299
2024-02-26 04:40:04, 53.225, 0, 92.379611943299
2024-02-26 04:45:05, 53.223, 0, 92.379611943299
2024-02-26 04:50:05, 53.224, 0, 92.379611943299
2024-02-26 04:55:06, 53.224, 0, 92.379611943299
2024-02-26 05:00:07, 53.22, 0, 92.379611943299
2024-02-26 05:05:07, 53.219, 0, 92.379611943299
2024-02-26 05:10:08, 53.219, 0, 92.379611943299
2024-02-26 05:15:09, 53.216, 0, 92.379611943299
2024-02-26 05:20:09, 53.217, 0, 92.379611943299
2024-02-26 05:25:10, 53.217, 0, 92.379611943299
2024-02-26 05:30:10, 53.217, 0, 92.379611943299
2024-02-26 05:35:11, 53.217, 0, 92.379611943299
2024-02-26 05:40:11, 53.217, 0, 92.379611943299
2024-02-26 05:45:11, 53.215, 0, 92.379611943299
2024-02-26 05:50:13, 53.215, 0, 92.379611943299
2024-02-26 05:55:12, 53.215, 0, 92.379611943299
2024-02-26 06:00:14, 53.213, 0, 92.379611943299
2024-02-26 06:05:15, 53.21, 0, 92.379611943299
2024-02-26 06:10:15, 53.209, 0, 92.379611943299
2024-02-26 06:15:16, 53.208, 0, 92.379611943299
2024-02-26 06:20:16, 53.209, 0, 92.379611943299
2024-02-26 06:25:17, 53.209, 0, 92.379611943299
2024-02-26 06:30:18, 53.209, 0, 92.379611943299
2024-02-26 06:35:18, 53.209, 0, 92.379611943299
2024-02-26 06:40:19, 53.209, 0, 92.379611943299
2024-02-26 06:45:20, 53.205, 0, 92.379611943299
2024-02-26 06:50:20, 53.204, 0, 92.379611943299
2024-02-26 06:55:21, 53.208, 0, 92.379611943299
2024-02-26 07:00:21, 53.205, 0, 92.379611943299
2024-02-26 07:05:22, 53.204, 0, 92.379611943299
2024-02-26 07:10:23, 53.203, 0, 92.379611943299
2024-02-26 07:15:23, 53.203, 0, 92.379611943299
2024-02-26 07:20:24, 53.203, 0, 92.379611943299
2024-02-26 07:25:24, 53.203, 0, 92.379611943299
2024-02-26 07:30:24, 53.202, 0, 92.379611943299
2024-02-26 07:35:25, 53.2, 0, 92.379611943299
2024-02-26 07:40:25, 53.197, 0, 92.379611943299
2024-02-26 07:45:27, 53.199, 0, 92.379611943299
2024-02-26 07:50:26, 53.2, 0, 92.379611943299
2024-02-26 07:55:28, 53.203, 0, 92.379611943299
2024-02-26 08:00:29, 53.209, 0, 92.379611943299
2024-02-26 08:05:29, 53.214, 0, 92.379611943299
2024-02-26 08:10:30, 53.218, 0, 92.379611943299
2024-02-26 08:15:30, 53.227, 0, 92.379611943299
2024-02-26 08:20:31, 53.239, 0, 92.379611943299
2024-02-26 08:25:31, 53.248, 0, 92.379611943299
2024-02-26 08:30:32, 53.254, 0, 92.379611943299
2024-02-26 08:35:33, 53.263, 0, 92.379611943299
2024-02-26 08:40:33, 53.264, 0, 92.379611943299
2024-02-26 08:45:34, 53.282, 0, 92.379611943299
2024-02-26 08:50:35, 53.301, 0, 92.379611943299
2024-02-26 08:55:35, 53.314, 0, 92.379611943299
2024-02-26 09:00:36, 53.316, 0, 92.379611943299
2024-02-26 09:05:36, 53.318, 0, 92.379611943299
2024-02-26 09:10:37, 53.323, 0, 92.379611943299
2024-02-26 09:15:37, 53.313, 0, 92.379611943299
2024-02-26 09:20:38, 53.311, 0, 92.379611943299
2024-02-26 09:25:38, 53.318, 0, 92.379611943299
2024-02-26 09:30:39, 53.334, 0, 92.379611943299
2024-02-26 09:35:39, 53.356, 0, 92.379611943299
2024-02-26 09:40:40, 53.38, 0, 92.379611943299
2024-02-26 09:45:41, 53.38, 0, 92.379611943299
2024-02-26 09:50:40, 53.383, 0, 92.379611943299
2024-02-26 09:55:42, 53.404, 0, 92.379611943299
2024-02-26 10:00:41, 53.381, 0, 92.379611943299
2024-02-26 10:05:43, 53.397, 0, 92.379611943299
2024-02-26 10:08:14, 53.436, 0.146, 92.379611943299
2024-02-26 10:13:14, 53.457, 0.068, 92.389665225696
2024-02-26 10:18:15, 53.457, 0, 92.389665225696
2024-02-26 10:23:15, 53.441, 0, 92.389665225696
2024-02-26 10:28:16, 53.418, 0, 92.389665225696
2024-02-26 10:33:16, 53.393, 0, 92.389665225696
2024-02-26 10:38:17, 53.371, 0, 92.389665225696
2024-02-26 10:43:17, 53.351, 0, 92.389665225696
2024-02-26 10:48:17, 53.341, 0, 92.389665225696
2024-02-26 10:53:18, 53.345, 0, 92.389665225696
2024-02-26 10:58:18, 53.345, 0, 92.389665225696
2024-02-26 11:03:19, 53.343, 0, 92.389665225696
2024-02-26 11:08:19, 53.343, 0, 92.389665225696
2024-02-26 11:13:20, 53.346, 0, 92.389665225696
2024-02-26 11:18:21, 53.349, 0, 92.389665225696
2024-02-26 11:23:20, 53.353, 0, 92.389665225696
2024-02-26 11:28:22, 53.358, 0, 92.389665225696
2024-02-26 11:31:53, 53.383, 0.169, 92.399718508093
2024-02-26 11:33:52, 53.498, 2.182, 92.47009148487
2024-02-26 11:35:53, 53.691, 4.395, 92.600784156027
2024-02-26 11:37:53, 53.873, 4.22, 92.741530109581
2024-02-26 11:39:54, 53.873, 1.537, 92.821956368754
2024-02-26 11:41:54, 53.784, 0.895, 92.852116215945
2024-02-26 11:44:54, 53.751, 0.783, 92.892329345531
2024-02-26 11:46:55, 53.714, 0.59, 92.912435910325
2024-02-26 11:49:55, 53.698, 0.705, 92.942595757515
2024-02-26 11:51:55, 53.698, 0.96, 92.972755604705
2024-02-26 11:53:54, 53.798, 2.837, 93.063235146275
2024-02-26 11:55:55, 53.917, 3.507, 93.173821252639
2024-02-26 11:57:56, 54.007, 4.38, 93.32462048859
2024-02-26 11:59:56, 54.013, 3.322, 93.455313159747
2024-02-26 12:01:56, 53.872, 1.387, 93.495526289333
2024-02-26 12:03:57, 53.771, 0, 93.50557957173
2024-02-26 12:05:56, 53.731, 0.327, 93.515632854127
2024-02-26 12:07:57, 53.718, 0.817, 93.545792701317
2024-02-26 12:09:57, 53.873, 4.322, 93.676485372474
2024-02-26 12:12:28, 53.902, 3.94, 93.807178043631
2024-02-26 12:14:27, 53.874, 2.53, 93.907710867598
2024-02-26 12:16:28, 53.96, 4.255, 94.058510103549
2024-02-26 12:18:28, 53.986, 5.175, 94.229415904293
2024-02-26 12:21:29, 53.994, 5.175, 94.48074796421
2024-02-26 12:24:28, 53.992, 5.085, 94.742133306525
2024-02-26 12:27:29, 53.977, 5.005, 94.993465366442
2024-02-26 12:30:30, 53.966, 5, 95.24479742636
2024-02-26 12:33:30, 53.961, 5.023, 95.496129486277
2024-02-26 12:36:30, 53.954, 4.995, 95.747461546195
2024-02-26 12:39:31, 53.947, 5.033, 95.998793606112
2024-02-26 12:42:31, 53.943, 5.043, 96.260178948427
2024-02-26 12:45:31, 53.944, 5.085, 96.511511008344
2024-02-26 12:48:32, 53.944, 5.039, 96.762843068262
2024-02-26 12:51:31, 53.943, 5.056, 97.024228410576
2024-02-26 12:54:02, 53.936, 4.924, 97.22529405851
2024-02-26 12:56:02, 53.935, 5.137, 97.396199859254
2024-02-26 12:59:03, 53.945, 5.069, 97.657585201568
2024-02-26 13:02:03, 53.946, 5.04, 97.908917261486
2024-02-26 13:05:03, 53.949, 5.046, 98.160249321403
2024-02-26 13:08:04, 53.953, 5.023, 98.411581381321
2024-02-26 13:11:04, 53.957, 5.043, 98.672966723635
2024-02-26 13:14:04, 53.96, 5.026, 98.924298783553
2024-02-26 13:17:05, 53.963, 5.005, 99.17563084347
2024-02-26 13:20:05, 53.971, 5, 99.426962903388
2024-02-26 13:25:06, 53.975, 4.99, 99.507389162562
2024-02-26 13:30:06, 53.981, 4.963, 99.507389162562
2024-02-26 13:35:07, 53.991, 4.916, 99.507389162562
2024-02-26 13:40:08, 54.002, 4.88, 99.507389162562
2024-02-26 13:45:08, 54.012, 4.833, 99.507389162562
2024-02-26 13:50:09, 54.028, 4.794, 99.507389162562
2024-02-26 13:55:09, 54.042, 4.71, 99.507389162562
2024-02-26 14:00:10, 54.062, 4.652, 99.507389162562
2024-02-26 14:05:10, 54.085, 4.558, 99.507389162562
2024-02-26 14:07:40, 54.1, 4.456, 99.507389162562
2024-02-26 14:11:11, 54.113, 4.355, 99.507389162562
2024-02-26 14:15:42, 54.135, 4.252, 99.507389162562
2024-02-26 14:17:42, 54.155, 4.127, 99.507389162562
2024-02-26 14:22:12, 54.18, 4.026, 99.507389162562
2024-02-26 14:24:13, 54.208, 3.91, 99.507389162562
2024-02-26 14:26:43, 54.23, 3.809, 99.507389162562
2024-02-26 14:29:13, 54.26, 3.701, 99.507389162562
2024-02-26 14:31:13, 54.288, 3.58, 99.507389162562
2024-02-26 14:33:13, 54.317, 3.46, 99.507389162562
2024-02-26 14:35:14, 54.349, 3.36, 99.507389162562
2024-02-26 14:37:14, 54.315, 0.829, 99.497335880165
2024-02-26 14:39:14, 54.251, 3.562, 99.507389162562
2024-02-26 14:41:15, 54.388, 2.875, 99.507389162562
2024-02-26 14:43:14, 54.419, 2.247, 99.507389162562
2024-02-26 14:45:15, 54.423, 1.957, 99.507389162562
2024-02-26 14:47:15, 54.429, 1.68, 99.507389162562
2024-02-26 14:49:15, 54.432, 1.422, 99.507389162562
2024-02-26 14:51:16, 54.436, 1.187, 99.507389162562
2024-02-26 14:53:15, 54.437, 1.025, 99.507389162562
2024-02-26 14:55:16, 54.439, 0.852, 99.507389162562
2024-02-26 14:57:16, 54.439, 0.725, 99.507389162562
2024-02-26 14:59:16, 54.447, 0.352, 99.507389162562
2024-02-26 15:01:17, 54.451, 0.177, 99.507389162562
2024-02-26 15:03:16, 54.453, 0, 99.507389162562
2024-02-26 15:08:17, 54.453, 0, 99.507389162562
2024-02-26 15:10:17, 54.217, -2.188, 99.457122750578
2024-02-26 15:12:18, 54.215, 1.967, 99.507389162562
2024-02-26 15:14:18, 54.457, 0, 99.507389162562
2024-02-26 15:19:18, 54.451, 0, 99.507389162562
2024-02-26 15:24:19, 54.456, 0, 99.507389162562
2024-02-26 15:29:19, 54.452, 0, 99.507389162562
2024-02-26 15:32:20, 54.433, -0.429, 99.507389162562
2024-02-26 15:34:20, 54.078, -2.781, 99.426962903388
2024-02-26 15:36:20, 53.679, -3.618, 99.306323514628
2024-02-26 15:38:19, 53.391, -4.2, 99.17563084347
2024-02-26 15:40:20, 53.578, 5.359, 99.276163667437
2024-02-26 15:42:21, 53.974, 4.195, 99.426962903388
2024-02-26 15:44:21, 54.274, 1.197, 99.467176032975
2024-02-26 15:46:21, 54.452, 0.935, 99.507389162562
2024-02-26 15:48:22, 54.453, 0, 99.507389162562
2024-02-26 15:53:22, 54.444, 0, 99.507389162562
2024-02-26 15:58:23, 54.436, 0, 99.507389162562
2024-02-26 16:03:23, 54.439, 0, 99.507389162562
2024-02-26 16:08:24, 54.439, 0, 99.507389162562
2024-02-26 16:13:24, 54.439, 0, 99.507389162562
2024-02-26 16:18:25, 54.439, 0, 99.507389162562
2024-02-26 16:23:26, 54.442, 0, 99.507389162562
2024-02-26 16:28:26, 54.441, 0, 99.507389162562
2024-02-26 16:33:27, 54.438, 0, 99.507389162562
2024-02-26 16:38:27, 54.436, 0, 99.507389162562
2024-02-26 16:43:28, 54.433, 0, 99.507389162562
2024-02-26 16:48:28, 54.437, 0, 99.507389162562
2024-02-26 16:53:29, 54.436, 0, 99.507389162562
2024-02-26 16:58:30, 54.438, 0, 99.507389162562
2024-02-26 17:03:30, 54.437, 0, 99.507389162562
2024-02-26 17:08:31, 54.439, 0, 99.507389162562
2024-02-26 17:13:31, 54.437, 0, 99.507389162562
2024-02-26 17:18:32, 54.438, 0, 99.507389162562
2024-02-26 17:23:32, 54.436, 0, 99.507389162562
2024-02-26 17:28:33, 54.437, 0, 99.507389162562
2024-02-26 17:33:34, 54.435, 0, 99.507389162562
2024-02-26 17:38:33, 54.419, 0, 99.507389162562
2024-02-26 17:43:35, 54.379, 0, 99.507389162562
2024-02-26 17:46:35, 54.327, 0, 99.507389162562
2024-02-26 17:50:06, 54.276, 0, 99.507389162562
2024-02-26 17:53:06, 54.222, 0, 99.507389162562
2024-02-26 17:56:07, 54.171, 0, 99.507389162562
2024-02-26 17:59:06, 54.12, 0, 99.507389162562
2024-02-26 18:02:07, 54.069, 0, 99.507389162562
2024-02-26 18:05:08, 54.016, 0, 99.507389162562
2024-02-26 18:07:37, 53.965, 0, 99.507389162562
2024-02-26 18:12:38, 53.931, 0, 99.507389162562
2024-02-26 18:17:38, 53.9, 0, 99.507389162562
2024-02-26 18:22:39, 53.857, 0, 99.507389162562
2024-02-26 18:27:39, 53.812, 0, 99.507389162562
2024-02-26 18:32:10, 53.761, 0, 99.507389162562
2024-02-26 18:37:11, 53.71, 0, 99.507389162562
2024-02-26 18:42:12, 53.659, 0, 99.507389162562
2024-02-26 18:47:12, 53.614, 0, 99.507389162562
2024-02-26 18:52:13, 53.571, 0, 99.507389162562
2024-02-26 18:57:13, 53.531, 0, 99.507389162562
2024-02-26 19:02:14, 53.497, 0, 99.507389162562
2024-02-26 19:07:14, 53.466, 0, 99.507389162562
2024-02-26 19:12:15, 53.436, 0, 99.507389162562
2024-02-26 19:17:15, 53.41, 0, 99.507389162562
2024-02-26 19:22:16, 53.386, 0, 99.507389162562
2024-02-26 19:27:16, 53.364, 0, 99.507389162562
2024-02-26 19:32:17, 53.345, 0, 99.507389162562
2024-02-26 19:37:17, 53.324, 0, 99.507389162562
2024-02-26 19:42:18, 53.308, 0, 99.507389162562
2024-02-26 19:47:19, 53.292, 0, 99.507389162562
2024-02-26 19:52:19, 53.278, 0, 99.507389162562
2024-02-26 19:57:20, 53.264, 0, 99.507389162562
2024-02-26 20:02:20, 53.251, 0, 99.507389162562
2024-02-26 20:07:21, 53.24, 0, 99.507389162562
2024-02-26 20:12:21, 53.228, 0, 99.507389162562
2024-02-26 20:17:21, 53.221, 0, 99.507389162562
2024-02-26 20:22:23, 53.214, 0, 99.507389162562
2024-02-26 20:27:22, 53.207, 0, 99.507389162562
2024-02-26 20:32:24, 53.202, 0, 99.507389162562
2024-02-26 20:37:25, 53.197, 0, 99.507389162562
2024-02-26 20:42:25, 53.192, 0, 99.507389162562
2024-02-26 20:47:26, 53.186, 0, 99.507389162562
2024-02-26 20:52:26, 53.185, 0, 99.507389162562
2024-02-26 20:57:27, 53.183, 0, 99.507389162562
2024-02-26 21:02:27, 53.183, 0, 99.507389162562
2024-02-26 21:07:28, 53.179, 0, 99.507389162562
2024-02-26 21:12:28, 53.179, 0, 99.507389162562
2024-02-26 21:17:29, 53.176, 0, 99.507389162562
2024-02-26 21:22:29, 53.181, 0, 99.507389162562
2024-02-26 21:27:30, 53.181, 0, 99.507389162562
2024-02-26 21:32:31, 53.179, 0, 99.507389162562
2024-02-26 21:37:31, 53.179, 0, 99.507389162562
2024-02-26 21:42:32, 53.181, 0, 99.507389162562
2024-02-26 21:47:32, 53.18, 0, 99.507389162562
2024-02-26 21:52:33, 53.181, 0, 99.507389162562
2024-02-26 21:57:34, 53.18, 0, 99.507389162562
2024-02-26 22:02:34, 53.181, 0, 99.507389162562
2024-02-26 22:07:35, 53.182, 0, 99.507389162562
2024-02-26 22:12:35, 53.181, 0, 99.507389162562
2024-02-26 22:17:36, 53.182, 0, 99.507389162562
2024-02-26 22:22:36, 53.182, 0, 99.507389162562
2024-02-26 22:27:36, 53.184, 0, 99.507389162562
2024-02-26 22:32:37, 53.184, 0, 99.507389162562
2024-02-26 22:37:37, 53.183, 0, 99.507389162562
2024-02-26 22:42:38, 53.183, 0, 99.507389162562
2024-02-26 22:47:38, 53.184, 0, 99.507389162562
2024-02-26 22:52:39, 53.186, 0, 99.507389162562
2024-02-26 22:57:39, 53.185, 0, 99.507389162562
2024-02-26 23:02:40, 53.184, 0, 99.507389162562
2024-02-26 23:07:40, 53.186, 0, 99.507389162562
2024-02-26 23:12:42, 53.186, 0, 99.507389162562
2024-02-26 23:17:42, 53.185, 0, 99.507389162562
2024-02-26 23:22:43, 53.185, 0, 99.507389162562
2024-02-26 23:27:43, 53.186, 0, 99.507389162562
2024-02-26 23:32:44, 53.185, 0, 99.507389162562
2024-02-26 23:37:45, 53.187, 0, 99.507389162562
2024-02-26 23:42:45, 53.186, 0, 99.507389162562
2024-02-26 23:47:46, 53.186, 0, 99.507389162562
2024-02-26 23:52:46, 53.186, 0, 99.507389162562
2024-02-26 23:57:47, 53.186, 0, 99.507389162562
2024-02-27 00:02:47, 53.188, 0, 99.507389162562
2024-02-27 00:07:48, 53.187, 0, 99.507389162562
2024-02-27 00:12:49, 53.187, 0, 99.507389162562
2024-02-27 00:17:49, 53.191, 0, 99.507389162562
2024-02-27 00:22:50, 53.191, 0, 99.507389162562
2024-02-27 00:27:50, 53.19, 0, 99.507389162562
2024-02-27 00:32:51, 53.189, 0, 99.507389162562
2024-02-27 00:37:52, 53.186, 0, 99.507389162562
2024-02-27 00:42:52, 53.187, 0, 99.507389162562
2024-02-27 00:47:53, 53.188, 0, 99.507389162562
2024-02-27 00:52:53, 53.186, 0, 99.507389162562
2024-02-27 00:57:54, 53.184, 0, 99.507389162562
2024-02-27 01:02:54, 53.185, 0, 99.507389162562
2024-02-27 01:07:54, 53.185, 0, 99.507389162562
2024-02-27 01:12:56, 53.184, 0, 99.507389162562
2024-02-27 01:17:55, 53.185, 0, 99.507389162562
2024-02-27 01:22:57, 53.185, 0, 99.507389162562
2024-02-27 01:27:56, 53.185, 0, 99.507389162562
2024-02-27 01:32:58, 53.184, 0, 99.507389162562
2024-02-27 01:37:58, 53.183, 0, 99.507389162562
2024-02-27 01:42:59, 53.184, 0, 99.507389162562
2024-02-27 01:47:59, 53.185, 0, 99.507389162562
2024-02-27 01:52:58, 53.184, 0, 99.507389162562
2024-02-27 01:58:00, 53.184, 0, 99.507389162562
2024-02-27 02:02:59, 53.184, 0, 99.507389162562
2024-02-27 02:08:01, 53.185, 0, 99.507389162562
2024-02-27 02:13:02, 53.182, 0, 99.507389162562
2024-02-27 02:18:02, 53.184, 0, 99.507389162562
2024-02-27 02:23:03, 53.185, 0, 99.507389162562
2024-02-27 02:28:04, 53.185, 0, 99.507389162562
2024-02-27 02:33:04, 53.186, 0, 99.507389162562
2024-02-27 02:38:05, 53.184, 0, 99.507389162562
2024-02-27 02:43:05, 53.184, 0, 99.507389162562
2024-02-27 02:48:06, 53.183, 0, 99.507389162562
2024-02-27 02:53:07, 53.184, 0, 99.507389162562
2024-02-27 02:58:07, 53.184, 0, 99.507389162562
2024-02-27 03:03:08, 53.183, 0, 99.507389162562
2024-02-27 03:08:08, 53.183, 0, 99.507389162562
2024-02-27 03:13:09, 53.182, 0, 99.507389162562
2024-02-27 03:18:10, 53.182, 0, 99.507389162562
2024-02-27 03:23:10, 53.181, 0, 99.507389162562
2024-02-27 03:28:10, 53.182, 0, 99.507389162562
2024-02-27 03:33:12, 53.182, 0, 99.507389162562
2024-02-27 03:38:11, 53.183, 0, 99.507389162562
2024-02-27 03:43:13, 53.183, 0, 99.507389162562
2024-02-27 03:48:14, 53.182, 0, 99.507389162562
2024-02-27 03:53:14, 53.177, 0, 99.507389162562
2024-02-27 03:58:15, 53.177, 0, 99.507389162562
2024-02-27 04:03:15, 53.178, 0, 99.507389162562
2024-02-27 04:08:16, 53.176, 0, 99.507389162562
2024-02-27 04:13:16, 53.177, 0, 99.507389162562
2024-02-27 04:18:17, 53.176, 0, 99.507389162562
2024-02-27 04:23:18, 53.175, 0, 99.507389162562
2024-02-27 04:28:18, 53.175, 0, 99.507389162562
2024-02-27 04:33:19, 53.178, 0, 99.507389162562
2024-02-27 04:38:19, 53.178, 0, 99.507389162562
2024-02-27 04:43:20, 53.176, 0, 99.507389162562
2024-02-27 04:48:21, 53.176, 0, 99.507389162562
2024-02-27 04:53:21, 53.176, 0, 99.507389162562
2024-02-27 04:58:22, 53.176, 0, 99.507389162562
2024-02-27 05:03:23, 53.176, 0, 99.507389162562
2024-02-27 05:08:24, 53.174, 0, 99.507389162562
2024-02-27 05:13:23, 53.173, 0, 99.507389162562
2024-02-27 05:18:25, 53.174, 0, 99.507389162562
2024-02-27 05:23:26, 53.174, 0, 99.507389162562
2024-02-27 05:28:26, 53.173, 0, 99.507389162562
2024-02-27 05:33:27, 53.173, 0, 99.507389162562
2024-02-27 05:38:28, 53.174, 0, 99.507389162562
2024-02-27 05:43:28, 53.174, 0, 99.507389162562
2024-02-27 05:48:29, 53.175, 0, 99.507389162562
2024-02-27 05:53:29, 53.175, 0, 99.507389162562
2024-02-27 05:58:30, 53.172, 0, 99.507389162562
2024-02-27 06:03:31, 53.17, 0, 99.507389162562
2024-02-27 06:08:31, 53.169, 0, 99.507389162562
2024-02-27 06:13:32, 53.171, 0, 99.507389162562
2024-02-27 06:18:32, 53.172, 0, 99.507389162562
2024-02-27 06:23:33, 53.173, 0, 99.507389162562
2024-02-27 06:28:34, 53.172, 0, 99.507389162562
2024-02-27 06:33:34, 53.171, 0, 99.507389162562
2024-02-27 06:38:35, 53.171, 0, 99.507389162562
2024-02-27 06:43:35, 53.169, 0, 99.507389162562
2024-02-27 06:48:36, 53.17, 0, 99.507389162562
2024-02-27 06:53:37, 53.17, 0, 99.507389162562
2024-02-27 06:58:36, 53.171, 0, 99.507389162562
2024-02-27 07:03:38, 53.17, 0, 99.507389162562
2024-02-27 07:08:37, 53.168, 0, 99.507389162562
2024-02-27 07:13:39, 53.168, 0, 99.507389162562
2024-02-27 07:18:38, 53.169, 0, 99.507389162562
2024-02-27 07:23:40, 53.167, 0, 99.507389162562
2024-02-27 07:28:39, 53.165, 0, 99.507389162562
2024-02-27 07:33:41, 53.167, 0, 99.507389162562
2024-02-27 07:38:41, 53.167, 0, 99.507389162562
2024-02-27 07:43:42, 53.168, 0, 99.507389162562
2024-02-27 07:48:43, 53.168, 0, 99.507389162562
2024-02-27 07:53:43, 53.167, 0, 99.507389162562
2024-02-27 07:58:44, 53.168, 0, 99.507389162562
2024-02-27 08:03:44, 53.17, 0, 99.507389162562
2024-02-27 08:08:45, 53.171, 0, 99.507389162562
2024-02-27 08:13:45, 53.176, 0, 99.507389162562
2024-02-27 08:18:46, 53.18, 0, 99.507389162562
2024-02-27 08:23:46, 53.185, 0, 99.507389162562
2024-02-27 08:28:47, 53.189, 0, 99.507389162562
2024-02-27 08:33:48, 53.195, 0, 99.507389162562
2024-02-27 08:38:49, 53.201, 0, 99.507389162562
2024-02-27 08:43:49, 53.21, 0, 99.507389162562
2024-02-27 08:48:50, 53.218, 0, 99.507389162562
2024-02-27 08:53:50, 53.226, 0, 99.507389162562
2024-02-27 08:58:51, 53.234, 0, 99.507389162562
2024-02-27 09:03:51, 53.245, 0, 99.507389162562
2024-02-27 09:08:52, 53.258, 0, 99.507389162562
2024-02-27 09:13:52, 53.271, 0, 99.507389162562
2024-02-27 09:18:52, 53.283, 0, 99.507389162562
2024-02-27 09:23:54, 53.293, 0, 99.507389162562
2024-02-27 09:28:53, 53.304, 0, 99.507389162562
2024-02-27 09:33:55, 53.311, 0, 99.507389162562
2024-02-27 09:38:54, 53.315, 0, 99.507389162562
2024-02-27 09:43:56, 53.326, 0, 99.507389162562
2024-02-27 09:48:57, 53.339, 0, 99.507389162562
2024-02-27 09:53:57, 53.35, 0, 99.507389162562
2024-02-27 09:58:58, 53.364, 0, 99.507389162562
2024-02-27 10:03:58, 53.383, 0, 99.507389162562
2024-02-27 10:08:59, 53.402, 0, 99.507389162562
2024-02-27 10:13:59, 53.412, 0, 99.507389162562
2024-02-27 10:19:00, 53.427, 0, 99.507389162562
2024-02-27 10:24:00, 53.444, 0, 99.507389162562
2024-02-27 10:29:01, 53.468, 0, 99.507389162562
2024-02-27 10:34:01, 53.481, 0, 99.507389162562
2024-02-27 10:39:02, 53.498, 0, 99.507389162562
2024-02-27 10:44:02, 53.505, 0, 99.507389162562
2024-02-27 10:49:03, 53.517, 0, 99.507389162562
2024-02-27 10:51:32, 53.535, 0.137, 99.507389162562
2024-02-27 10:53:33, 53.554, 0.732, 99.507389162562
2024-02-27 10:58:34, 53.586, 0.769, 99.507389162562
2024-02-27 11:00:34, 53.601, 0.625, 99.507389162562
2024-02-27 11:05:34, 53.607, 0.653, 99.507389162562
2024-02-27 11:10:04, 53.622, 0.755, 99.507389162562
2024-02-27 11:15:06, 53.638, 0.683, 99.507389162562
2024-02-27 11:17:36, 53.638, 0.508, 99.507389162562
2024-02-27 11:19:36, 53.634, 0.172, 99.507389162562
2024-02-27 11:24:37, 53.633, 0.231, 99.507389162562
2024-02-27 11:26:37, 53.635, 0.54, 99.507389162562
2024-02-27 11:28:36, 53.644, 0.757, 99.507389162562
2024-02-27 11:33:08, 53.659, 0.857, 99.507389162562
2024-02-27 11:35:08, 53.684, 1.052, 99.507389162562
2024-02-27 11:39:08, 53.704, 0.845, 99.507389162562
2024-02-27 11:41:08, 53.686, 0.197, 99.507389162562
2024-02-27 11:43:09, 53.672, 0, 99.507389162562
2024-02-27 11:45:09, 53.685, 1.244, 99.507389162562
2024-02-27 11:47:08, 53.721, 1.47, 99.507389162562
2024-02-27 11:52:09, 53.765, 1.553, 99.507389162562
2024-02-27 11:54:10, 53.782, 1.444, 99.507389162562
2024-02-27 11:56:10, 53.78, 1.327, 99.507389162562
2024-02-27 11:58:10, 53.774, 1.517, 99.507389162562
2024-02-27 12:00:10, 53.783, 1.637, 99.507389162562
2024-02-27 12:05:11, 53.787, 1.582, 99.507389162562
2024-02-27 12:10:12, 53.787, 1.592, 99.507389162562
2024-02-27 12:14:42, 53.787, 1.706, 99.507389162562
2024-02-27 12:19:42, 53.8, 1.842, 99.507389162562